AXB225 VOBL-VOCI

Flight info

Callsign AXB225
Flight time 0h 42m
Altitude 30000
Route AKTIM8A/09L AKTIM W118 CCB CCB1D
Aircraft B738/M-N/C

Departure

Time 2026-05-08 14:35
Airport Kempegowda International Airport Bengaluru (VOBL)

Arrival

Time 2026-05-08 15:18
Airport Cochin International Airport (VOCI)
Time Latitude Longitude Altitude Speed Heading
2026-05-08 14:23 13.20239 77.70966 2967 ft 0 kts 269°
2026-05-08 14:25 13.20239 77.70963 2967 ft 0 kts 269°
2026-05-08 14:25 13.20239 77.70959 2968 ft 1 kts 268°
2026-05-08 14:26 13.20239 77.70937 2969 ft 4 kts 268°
2026-05-08 14:26 13.20237 77.70892 2970 ft 8 kts 267°
2026-05-08 14:26 13.20233 77.70823 2973 ft 11 kts 266°
2026-05-08 14:26 13.20228 77.70728 2976 ft 15 kts 268°
2026-05-08 14:27 13.20232 77.70612 2978 ft 16 kts 274°
2026-05-08 14:27 13.20242 77.70495 2981 ft 16 kts 276°
2026-05-08 14:27 13.20298 77.70403 2983 ft 16 kts 345°
2026-05-08 14:27 13.20407 77.70393 2984 ft 15 kts 359°
2026-05-08 14:28 13.20507 77.70378 2986 ft 13 kts 324°
2026-05-08 14:28 13.20530 77.70298 2988 ft 10 kts 275°
2026-05-08 14:28 13.20530 77.70225 2989 ft 10 kts 269°
2026-05-08 14:28 13.20530 77.70145 2991 ft 11 kts 269°
2026-05-08 14:29 13.20530 77.70049 2989 ft 15 kts 271°
2026-05-08 14:29 13.20532 77.69924 2988 ft 18 kts 270°
2026-05-08 14:29 13.20533 77.69782 2989 ft 20 kts 271°
2026-05-08 14:29 13.20534 77.69634 2992 ft 21 kts 270°
2026-05-08 14:30 13.20535 77.69476 2996 ft 22 kts 270°
2026-05-08 14:30 13.20537 77.69320 3001 ft 21 kts 271°
2026-05-08 14:30 13.20538 77.69161 3004 ft 22 kts 270°
2026-05-08 14:30 13.20540 77.68998 3008 ft 23 kts 270°
2026-05-08 14:31 13.20542 77.68825 3010 ft 24 kts 271°
2026-05-08 14:31 13.20546 77.68677 3010 ft 0 kts 292°
2026-05-08 14:32 13.20590 77.68621 3010 ft 7 kts 343°
2026-05-08 14:32 13.20592 77.68621 3010 ft 0 kts 345°
2026-05-08 14:33 13.20593 77.68621 3010 ft 0 kts 345°
2026-05-08 14:33 13.20616 77.68617 3011 ft 6 kts 354°
2026-05-08 14:34 13.20685 77.68630 3011 ft 13 kts 34°
2026-05-08 14:34 13.20714 77.68718 3010 ft 0 kts 90°
2026-05-08 14:34 13.20714 77.68740 3010 ft 20 kts 90°
2026-05-08 14:35 13.20711 77.69142 3007 ft 90 kts 91°
2026-05-08 14:35 13.20701 77.70010 2998 ft 152 kts 91°
2026-05-08 14:35 13.20696 77.71235 3104 ft 191 kts 91°
2026-05-08 14:35 13.20689 77.72658 3656 ft 204 kts 86°
2026-05-08 14:36 13.21111 77.74031 4382 ft 210 kts 57°
2026-05-08 14:36 13.22037 77.75186 5144 ft 213 kts 53°
2026-05-08 14:36 13.22876 77.76450 5889 ft 217 kts 58°
2026-05-08 14:36 13.23657 77.77773 6445 ft 225 kts 59°
2026-05-08 14:37 13.24515 77.79277 6501 ft 259 kts 60°
2026-05-08 14:37 13.25462 77.80957 6792 ft 284 kts 60°
2026-05-08 14:37 13.26419 77.82709 7648 ft 285 kts 64°
2026-05-08 14:37 13.26951 77.84690 8349 ft 292 kts 85°
2026-05-08 14:38 13.26891 77.86758 9165 ft 293 kts 93°
2026-05-08 14:38 13.26834 77.88855 9891 ft 297 kts 91°
2026-05-08 14:38 13.26806 77.90973 10629 ft 300 kts 91°
2026-05-08 14:38 13.26558 77.93087 11275 ft 304 kts 107°
2026-05-08 14:39 13.25644 77.95023 11999 ft 305 kts 125°
2026-05-08 14:39 13.24160 77.96579 12644 ft 307 kts 144°
2026-05-08 14:39 13.22282 77.97564 13301 ft 309 kts 162°
2026-05-08 14:39 13.20189 77.97894 13940 ft 310 kts 181°
2026-05-08 14:40 13.18085 77.97533 14554 ft 312 kts 198°
2026-05-08 14:40 13.16169 77.96498 15158 ft 314 kts 216°
2026-05-08 14:40 13.14652 77.94895 15729 ft 318 kts 234°
2026-05-08 14:40 13.13672 77.92860 16280 ft 322 kts 251°
2026-05-08 14:41 13.13124 77.90653 16834 ft 325 kts 254°
2026-05-08 14:41 13.12580 77.88380 17355 ft 328 kts 254°
2026-05-08 14:41 13.12040 77.86115 17860 ft 331 kts 254°
2026-05-08 14:41 13.11492 77.83821 18351 ft 334 kts 254°
2026-05-08 14:42 13.10912 77.81506 18823 ft 336 kts 249°
2026-05-08 14:42 13.09832 77.79404 19275 ft 335 kts 230°
2026-05-08 14:42 13.08193 77.77760 19719 ft 334 kts 215°
2026-05-08 14:42 13.06482 77.76220 20158 ft 338 kts 223°
2026-05-08 14:43 13.04881 77.74528 20603 ft 340 kts 224°
2026-05-08 14:43 13.03232 77.72783 21014 ft 342 kts 220°
2026-05-08 14:43 13.01402 77.71306 21415 ft 342 kts 214°
2026-05-08 14:43 12.99339 77.70161 21757 ft 342 kts 197°
2026-05-08 14:44 12.97045 77.69724 22189 ft 339 kts 180°
2026-05-08 14:44 12.94701 77.69758 22544 ft 342 kts 182°
2026-05-08 14:44 12.92331 77.69496 22960 ft 344 kts 185°
2026-05-08 14:44 12.89974 77.69191 23315 ft 346 kts 185°
2026-05-08 14:45 12.87880 77.68918 23628 ft 348 kts 185°
2026-05-08 14:45 12.85279 77.68578 24020 ft 350 kts 185°
2026-05-08 14:45 12.82875 77.68264 24374 ft 352 kts 185°
2026-05-08 14:45 12.80442 77.67947 24715 ft 354 kts 185°
2026-05-08 14:46 12.78000 77.67628 25042 ft 356 kts 185°
2026-05-08 14:46 12.75580 77.67313 25358 ft 358 kts 184°
2026-05-08 14:46 12.73100 77.66989 25675 ft 360 kts 184°
2026-05-08 14:46 12.70609 77.66664 25985 ft 362 kts 184°
2026-05-08 14:47 12.68128 77.66341 26282 ft 364 kts 184°
2026-05-08 14:47 12.65639 77.66017 26568 ft 366 kts 184°
2026-05-08 14:47 12.63136 77.65691 26846 ft 368 kts 184°
2026-05-08 14:47 12.60645 77.65366 27118 ft 370 kts 184°
2026-05-08 14:48 12.58092 77.65034 27390 ft 371 kts 184°
2026-05-08 14:48 12.55541 77.64701 27651 ft 373 kts 184°
2026-05-08 14:48 12.52997 77.64370 27904 ft 375 kts 184°
2026-05-08 14:48 12.50393 77.64031 28154 ft 377 kts 184°
2026-05-08 14:49 12.47813 77.63695 28396 ft 379 kts 184°
2026-05-08 14:49 12.45197 77.63354 28639 ft 380 kts 183°
2026-05-08 14:49 12.42595 77.63016 28872 ft 382 kts 183°
2026-05-08 14:49 12.39959 77.62672 29099 ft 384 kts 183°
2026-05-08 14:50 12.37293 77.62326 29319 ft 386 kts 183°
2026-05-08 14:50 12.34697 77.61988 29528 ft 387 kts 183°
2026-05-08 14:50 12.32084 77.61649 29737 ft 389 kts 183°
2026-05-08 14:50 12.29449 77.61306 29901 ft 391 kts 183°
2026-05-08 14:51 12.24139 77.60616 29884 ft 391 kts 183°
2026-05-08 14:51 12.18729 77.59914 29927 ft 402 kts 183°
2026-05-08 14:52 12.10323 77.58823 29945 ft 422 kts 183°
2026-05-08 14:53 12.04647 77.57368 29912 ft 441 kts 200°
2026-05-08 14:53 11.99224 77.54675 29954 ft 453 kts 203°
2026-05-08 14:54 11.93719 77.51811 29911 ft 464 kts 203°
2026-05-08 14:54 11.88640 77.49162 29896 ft 472 kts 204°
2026-05-08 14:55 11.83091 77.46270 29898 ft 480 kts 204°
2026-05-08 14:55 11.76682 77.42931 29899 ft 487 kts 204°
2026-05-08 14:56 11.70662 77.39796 29889 ft 488 kts 204°
2026-05-08 14:56 11.64630 77.36656 29887 ft 485 kts 204°
2026-05-08 14:56 11.61826 77.35194 29820 ft 462 kts 204°
2026-05-08 14:57 11.59152 77.33800 29836 ft 437 kts 203°
2026-05-08 14:57 11.56542 77.32442 29835 ft 414 kts 203°
2026-05-08 14:57 11.54431 77.31344 29805 ft 396 kts 202°
2026-05-08 14:57 11.51849 77.30003 29756 ft 376 kts 202°
2026-05-08 14:58 11.49658 77.28866 29613 ft 375 kts 202°
2026-05-08 14:58 11.47362 77.27684 28074 ft 402 kts 203°
2026-05-08 14:58 11.44882 77.26399 26945 ft 410 kts 203°
2026-05-08 14:58 11.42392 77.25103 26105 ft 408 kts 204°
2026-05-08 14:59 11.39903 77.23808 25544 ft 399 kts 204°
2026-05-08 14:59 11.35144 77.21339 24674 ft 378 kts 204°
2026-05-08 14:59 11.32875 77.20164 24256 ft 369 kts 204°
2026-05-08 15:00 11.30660 77.19016 23847 ft 360 kts 204°
2026-05-08 15:00 11.28534 77.17916 23420 ft 352 kts 204°
2026-05-08 15:00 11.26468 77.16846 23012 ft 345 kts 204°
2026-05-08 15:00 11.24307 77.15728 22589 ft 337 kts 204°
2026-05-08 15:01 11.22278 77.14678 22206 ft 330 kts 204°
2026-05-08 15:01 11.20280 77.13644 21843 ft 325 kts 204°
2026-05-08 15:01 11.18316 77.12629 21516 ft 323 kts 204°
2026-05-08 15:01 11.16348 77.11612 21171 ft 324 kts 205°
2026-05-08 15:02 11.14360 77.10584 20824 ft 325 kts 205°
2026-05-08 15:02 11.12424 77.09583 20478 ft 324 kts 205°
2026-05-08 15:02 11.10426 77.08549 20120 ft 322 kts 205°
2026-05-08 15:02 11.08483 77.07545 19772 ft 320 kts 205°
2026-05-08 15:03 11.06521 77.06531 19425 ft 317 kts 205°
2026-05-08 15:03 11.04587 77.05531 19085 ft 316 kts 205°
2026-05-08 15:03 11.02676 77.04479 18732 ft 315 kts 209°
2026-05-08 15:03 11.00812 77.03357 18390 ft 314 kts 209°
2026-05-08 15:04 10.98940 77.02227 18039 ft 313 kts 209°
2026-05-08 15:04 10.97090 77.01110 17693 ft 311 kts 209°
2026-05-08 15:04 10.95257 77.00002 17350 ft 310 kts 209°
2026-05-08 15:04 10.93390 76.98874 17006 ft 308 kts 210°
2026-05-08 15:05 10.91567 76.97772 16677 ft 307 kts 210°
2026-05-08 15:05 10.89777 76.96691 16354 ft 306 kts 210°
2026-05-08 15:05 10.87974 76.95602 16031 ft 305 kts 210°
2026-05-08 15:05 10.86153 76.94501 15705 ft 304 kts 210°
2026-05-08 15:06 10.84366 76.93423 15383 ft 303 kts 210°
2026-05-08 15:06 10.82544 76.92322 15055 ft 301 kts 210°
2026-05-08 15:06 10.80756 76.91243 14728 ft 300 kts 210°
2026-05-08 15:06 10.78964 76.90160 14397 ft 299 kts 210°
2026-05-08 15:07 10.77192 76.89092 14070 ft 298 kts 210°
2026-05-08 15:07 10.75408 76.88014 13741 ft 297 kts 210°
2026-05-08 15:07 10.73643 76.86949 13419 ft 296 kts 210°
2026-05-08 15:07 10.71893 76.85893 13100 ft 295 kts 210°
2026-05-08 15:08 10.70125 76.84827 12781 ft 294 kts 210°
2026-05-08 15:08 10.68956 76.84121 12571 ft 294 kts 210°
2026-05-08 15:08 10.66617 76.82710 12150 ft 293 kts 210°
2026-05-08 15:08 10.64885 76.81666 11837 ft 292 kts 210°
2026-05-08 15:09 10.63135 76.80611 11521 ft 290 kts 210°
2026-05-08 15:09 10.61416 76.79574 11209 ft 289 kts 210°
2026-05-08 15:09 10.59689 76.78533 10889 ft 288 kts 210°
2026-05-08 15:09 10.57973 76.77499 10566 ft 286 kts 210°
2026-05-08 15:10 10.56270 76.76472 10244 ft 285 kts 210°
2026-05-08 15:10 10.54582 76.75455 9932 ft 284 kts 210°
2026-05-08 15:10 10.52903 76.74444 9630 ft 282 kts 210°
2026-05-08 15:10 10.51230 76.73436 9327 ft 278 kts 210°
2026-05-08 15:11 10.49589 76.72445 8971 ft 270 kts 210°
2026-05-08 15:11 10.48026 76.71503 8579 ft 256 kts 210°
2026-05-08 15:11 10.46530 76.70602 8273 ft 245 kts 210°
2026-05-08 15:11 10.45076 76.69727 8055 ft 239 kts 210°
2026-05-08 15:12 10.43666 76.68877 7842 ft 238 kts 210°
2026-05-08 15:12 10.42239 76.68019 7645 ft 239 kts 210°
2026-05-08 15:12 10.40812 76.67160 7427 ft 241 kts 210°
2026-05-08 15:12 10.39376 76.66296 7184 ft 241 kts 210°
2026-05-08 15:13 10.37937 76.65426 6962 ft 236 kts 211°
2026-05-08 15:13 10.36562 76.64569 6607 ft 231 kts 211°
2026-05-08 15:13 10.35215 76.63728 6242 ft 222 kts 211°
2026-05-08 15:13 10.33931 76.62926 5923 ft 213 kts 211°
2026-05-08 15:14 10.32692 76.62151 5621 ft 206 kts 211°
2026-05-08 15:14 10.31487 76.61398 5435 ft 203 kts 211°
2026-05-08 15:14 10.30271 76.60639 5218 ft 204 kts 211°
2026-05-08 15:14 10.29023 76.59972 5007 ft 204 kts 202°
2026-05-08 15:15 10.27699 76.59418 4713 ft 207 kts 202°
2026-05-08 15:15 10.26375 76.58876 4431 ft 206 kts 201°
2026-05-08 15:15 10.25049 76.58338 4149 ft 206 kts 201°
2026-05-08 15:15 10.23741 76.57809 3874 ft 205 kts 201°
2026-05-08 15:16 10.22415 76.57275 3620 ft 200 kts 201°
2026-05-08 15:16 10.21138 76.56759 3313 ft 197 kts 201°
2026-05-08 15:16 10.19843 76.56420 3265 ft 192 kts 192°
2026-05-08 15:16 10.18503 76.56140 3249 ft 197 kts 191°
2026-05-08 15:17 10.17246 76.55765 3216 ft 184 kts 211°
2026-05-08 15:17 10.16446 76.54867 3143 ft 161 kts 250°
2026-05-08 15:17 10.16406 76.53797 3152 ft 161 kts 292°
2026-05-08 15:17 10.17122 76.52863 3368 ft 178 kts 324°
2026-05-08 15:18 10.18175 76.52204 3274 ft 179 kts 314°
2026-05-08 15:18 10.18719 76.51123 2988 ft 183 kts 285°
2026-05-08 15:18 10.18839 76.50283 79 ft 22 kts 329°